Find Starlink 2319

NORAD ID: 47790 Int'l Des: 2021-018 Owner: SPXS Country: US Constellation: starlink operational
LEOCIRCULAR

Live-Position

3D-Globus wird geladen...

Über Starlink 2319

Beschreibung wird geladen...

Nächste Überflüge

Passes for default location (London). Set your location on the main map for personalized predictions.

Höhenverlauf

Loading altitude history...

Zweizeiliger Elementsatz

1 47790U 21018D 26121.97690954 .00000426 00000-0 25495-4 0 9991
2 47790 53.1603 328.9544 0001011 103.9962 256.1151 15.31705994285263
Epoch: 1. Mai 2026 • Age: 10 hours

Aktueller Status

Höhe 471.4 km
Geschwindigkeit 7.63 km/s
Subsatellitenpunkt 0.36°N, 142.07°E
Startdatum 11. März 2021
Alter 5.1 years
Typ internet

Technische Details

Klassifizierung Payload
Masse 260.00 kg
Trockenmasse 248.00 kg
Gesamtmasse 260.00 kg
Länge 0.20 m
Durchmesser 2.80 m
Spannweite 9.00 m
Form Box + pan
Hersteller SPXS
Bus-Typ Starlink
Phasenstatus In Orbit
Besitzer/Staat SPXS/US

Most Searched